STARLINK-4078 (52689 NORAD) Tracking and Keplerian Element Data

This shows tracking and keplerian element data for the satellite.

Feedback or suggestion? Click here.




ElementValue
Catalog52689
NameSTARLINK-4078
Epoch Orbit894
Epoch Day193.25001157
Epoch Year2022
RAAN27.254
Inclination53.2176
Eccentricity0.0001742
Argument of Perigee38.8969
Mean Anonmoly157.4492
Mean Motion15.53130349
Decay Rate-0.01063257
L11 52689U 22053AK 22193.25001157 -.01063257 00000+0 -18358-1 0 9991
L22 52689 53.2176 27.2540 0001742 38.8969 157.4492 15.53130349 8940

Live tracking and technical data element details for STARLINK-4078 (NORAD 52689). STARLINK-4078 can be tracked NOW for your location showing map with azimuth and elevation plus other details from your city location.

Track the satellite on the map from your city or location and see movement details for azimuth, elevation, latitude, longitude, range, height, and movement on the map or in text.







IsCatalogInMostPopularTable: catalog: 52689, numindb: 8
Update: records affected: 1



GetName: 52689 STARLINK-4078

Hit Count: updated at: Sun, 14 Aug 2022 00:14:55 GMT